Showing default

FLOCK 4BE 34, 60495

Orbit data source: Space-Track

FLOCK 4BE 34, 60495 is a payload satellite owned by Planet (US) in SSO that was launched on Fri, 16 Aug 2024 UTC via an FALCON 9 launch vehicle from the Air Force Western Test Range (AFWTR). Payload-class satellites include a variety of spacecraft equipped with specific instruments for various scientific and technological missions. These include communications satellites like Starlink; space stations such as the ISS; scientific satellites like the Hubble; Earth observation satellites from companies like Planet Labs, Umbra, and HawkEye 360; GPS; miniature CubeSats for education and research; and military/defense satellites.

Loading next visibility...
Identifier
60495, 2024-149AD
Orbit
SSO
Country
Flag of USUS
Related business
Manufacturer
Planet
Mission
Operational Commercial Imaging
Bus & Motor
CUBESAT 3U, Unknown motor
Mass
5.7 kg wet, 5.7 kg dry
Launch date (UTC)
2024-08-16 (2 years ago)
Launch vehicle
FALCON 9
Launch site
Air Force Western Test Range (AFWTR)
Object type
Payload
Rocket body
Debris
Shape & HBR
Box + 2 Pan, 1.0 m
Radar Cross Section
0.072 m², Medium (>0.1 m² and < 1m²)

Expand to show TLE details & history
Last TLE update: 14 hours ago

TLE from 14 hours ago
0 FLOCK 4BE 34
1 60495U 24149AD  26256.18551789  .00027194  00000-0  59502-3 0  9996
2 60495  97.3737 341.6071 0002385 337.8858  22.2287 15.44111385115894
Epoch: 2026-09-13T04:27Z
TLE epoch observation values (Epoch: 2026-09-13T04:27:08.745Z)
Latitude
-0.00004°
Longitude
-77.36313°
Altitude
435.61 km
Speed
7.651 km/s
True Right ascension
22h 46m 25s
True Declination
0° 00' 00"
Sunlit
Object was in full shadow at epoch
Visualization orbit readout
Latitude
Unknown
Longitude
Unknown
Altitude
Unknown
Speed
Unknown
Apparent Right ascension
Unknown
Apparent Declination
Unknown
Sunlit
N/A
Visualization observer readout
Local Sidereal Time
10:51:36
Azimuth
Unknown
Elevation
Unknown
Doppler factor
Unknown
Orbital elements
Apogee altitude
432.547 km
Perigee altitude
429.299 km
Semi-major axis
6,809.06 km
Eccentricity
0.00024
Inclination
97.3737°
RAAN
341.6071°
Arg. of periapsis
337.8858°
True anomaly
22.23904°
Mean anomaly
22.2287°
Eccentric anomaly
22.23387°
Mean motion
3.86289 °/min
Orbital period
93.19 mins
BSTAR
0.00059502
Loading maneuver chart data...
Computing Atmospheric mass density...
Loading historical data...
Loading historical data...
Loading historical data...
Loading historical data...
Loading historical data...
Loading historical data...
Loading historical data...

Documentation

Showing up to 5 results
|